User: anonymous   Login
Location: Olsztyn
(53.7767°N, 20.4765°E)
Time: 17:17:31
(UTC+02:00)
Language:

Transit 4A - Orbit

View from above orbital plane
View from above orbital plane
View from above satellite
View from above satellite

Ground track
Ground track

The orbit data is extracted from the following two-line orbital elements,

1 00116U 61015A   24206.31463305  .00000271  00000-0  26645-3 0  9996
2 00116  66.8095 145.9585 0071082  34.4992 326.0671 13.92065703200250
Epoch (UTC): 24 July 2024 07:33:04
Eccentricity: 0.0071082
inclination: 66.8095°
perigee height: 869 km
apogee height: 973 km
right ascension of ascending node: 145.9585°
argument of perigee: 34.4992°
revolutions per day: 13.92065703
mean anomaly at epoch: 326.0671°
orbit number at epoch: 20025

The dashed part of the orbit path shows where the satellite is in the earth's shadow,  

DLR